Location: Katwijk
(52.2000°N, 4.4170°E)
Time: 14:34:41
(UTC+01:00)

ISS - Visible Passes

Search period start: 14 February 2026 00:00
Search period end: 24 February 2026 00:00
Orbit: 413 x 428 km, 51.6° (Epoch: 13 February)

Date Brightness Start Highest point End Pass type
(mag) Time Alt. Az. Time Alt. Az. Time Alt. Az.
14 Feb -1.0 06:22:48 10° S 06:24:53 16° SE 06:26:57 10° ESE visible
15 Feb -0.8 05:37:10 10° SSE 05:38:02 11° SE 05:38:54 10° ESE visible
15 Feb -2.5 07:11:02 10° SW 07:14:11 40° SSE 07:17:21 10° E visible
16 Feb -2.1 06:24:33 12° SSW 06:27:13 30° SSE 06:30:11 10° E visible
17 Feb -1.8 05:39:35 21° SSE 05:40:15 22° SSE 05:42:55 10° E visible
17 Feb -3.4 07:13:23 10° WSW 07:16:42 64° SSE 07:20:02 10° E visible
18 Feb -0.8 04:54:30 14° ESE 04:54:30 14° ESE 04:55:28 10° ESE visible
18 Feb -3.2 06:27:30 19° SW 06:29:38 52° SSE 06:32:54 10° E visible
19 Feb -2.9 05:42:19 40° S 05:42:35 40° SSE 05:45:45 10° E visible
19 Feb -3.7 07:15:54 10° W 07:19:15 82° S 07:22:36 10° E visible
20 Feb -1.3 04:57:03 21° ESE 04:57:03 21° ESE 04:58:32 10° E visible
20 Feb -3.7 06:30:02 21° WSW 06:32:06 75° S 06:35:27 10° E visible
21 Feb -3.7 05:44:43 62° SSW 05:44:58 65° SSE 05:48:18 10° E visible
22 Feb -1.7 04:59:22 27° E 04:59:22 27° E 05:01:08 10° E visible
22 Feb -3.8 06:32:20 19° W 06:34:35 83° S 06:37:56 10° E visible
23 Feb -3.9 05:46:57 64° WSW 05:47:23 82° S 05:50:45 10° E visible
